Location: Unspecified
(0.0000°N, 0.0000°E)
Time: 11:11:00
(UTC+00:00)

Vanguard 1 - Visible Passes

Search period start: 11 December 2017 00:00
Search period end: 21 December 2017 00:00
Orbit: 650 x 3833 km, 34.2° (Epoch: 10 December)

Date Brightness Start Highest point End Pass type
(mag) Time Alt. Az. Time Alt. Az. Time Alt. Az.
11 Dec 13.8 02:54:04 10° SSW 03:07:29 27° SSE 03:25:06 10° E visible
11 Dec 13.4 05:14:50 10° SW 05:35:33 67° SE 05:58:04 10° ENE visible
11 Dec 11.9 20:05:35 10° WSW 20:08:41 17° SSW 20:12:20 10° SSE visible
12 Dec 13.9 00:59:13 10° SSE 01:01:09 10° SSE 01:03:11 10° SSE visible
12 Dec 13.8 03:14:37 10° SSW 03:29:39 35° SE 03:49:31 10° E visible
13 Dec 13.8 01:17:30 10° S 01:23:54 14° SSE 01:31:48 10° SE visible
13 Dec 13.6 03:35:13 10° SSW 03:51:33 44° SE 04:13:07 10° ENE visible
13 Dec 10.2 18:25:48 10° WNW 18:30:17 48° SW 18:34:43 10° SE visible
14 Dec 13.7 01:37:17 10° S 01:46:22 19° SSE 01:58:26 10° ESE visible
14 Dec 13.3 03:55:56 10° SW 04:13:17 55° SE 04:36:03 10° ENE visible
14 Dec 11.5 18:47:35 10° W 18:51:18 24° SW 18:55:08 10° SSE visible
15 Dec 13.6 01:57:23 10° SSW 02:08:29 25° SE 02:24:02 10° E visible
15 Dec 13.1 04:16:46 10° SW 04:34:54 68° SE 04:58:26 10° ENE visible
15 Dec 12.1 19:10:19 10° WSW 19:12:28 13° SSW 19:14:42 10° S visible
16 Dec 13.5 02:17:40 10° SSW 02:30:18 33° SE 02:48:39 10° E visible
16 Dec 13.0 04:37:49 10° SW 04:56:32 82° SE 05:20:23 10° NE visible
17 Dec 13.7 00:23:57 10° SSE 00:26:08 10° SSE 00:28:29 10° SE visible
17 Dec 13.2 02:38:06 10° SSW 02:51:53 42° SE 03:12:26 10° ENE visible
17 Dec 12.9 04:59:04 10° SW 05:18:13 83° NW 05:42:01 10° NE visible
18 Dec 13.5 00:41:41 10° S 00:48:16 15° SE 00:56:49 10° ESE visible
18 Dec 13.0 02:58:41 10° SW 03:13:20 54° SE 03:35:30 10° ENE visible
18 Dec 12.9 05:20:36 10° WSW 05:40:01 69° NW 06:03:24 10° NE visible
19 Dec 13.4 01:01:15 10° S 01:10:04 22° SE 01:22:41 10° E visible
19 Dec 12.7 03:19:25 10° SW 03:34:45 68° SE 03:58:01 10° ENE visible
20 Dec 13.2 01:21:16 10° SSW 01:31:35 30° SE 01:47:25 10° E visible
20 Dec 12.6 03:40:21 10° SW 03:56:14 83° SE 04:20:05 10° NE visible
